DW1035 Weather Reports


time (UTC)temp
F
wind
direction
speed
knots
gust
knots
rain 1hr
in
rain 24hr
in
rain mn
in
humidity
%
barometer
mb
20260506091507 50 0 0.0 0.0 0.00 0.00 0.00 94 1006.0
20260506091007 50 0 0.0 0.0 0.00 0.00 0.00 94 1006.1
20260506090507 50 0 0.0 0.0 0.00 0.00 0.00 94 1006.1
20260506090006 50 0 0.0 0.0 0.00 0.00 0.00 94 1006.1
20260506084006 50 0 0.0 0.0 0.00 0.00 0.00 93 1006.0
20260506083507 50 0 0.0 0.0 0.00 0.00 0.00 93 1006.0
20260506083006 51 0 0.0 0.0 0.00 0.00 0.00 93 1006.0
20260506080507 51 0 0.0 0.0 0.00 0.00 0.00 91 1006.0
20260506073506 51 0 0.0 0.0 0.00 0.00 0.00 89 1005.8
20260506071506 51 0 0.0 0.0 0.00 0.00 0.00 89 1005.4
20260506071006 51 0 0.0 0.0 0.00 0.00 0.00 89 1005.4
20260506070506 51 0 0.0 0.0 0.00 0.00 0.00 89 1005.4
20260506061505 51 0 0.0 0.0 0.00 0.00 0.00 88 1005.3
20260506061006 51 0 0.0 0.0 0.00 0.00 0.00 88 1005.3
20260506060506 52 0 0.0 0.0 0.00 0.00 0.00 88 1005.3
20260506051005 54 0 0.0 0.0 0.00 0.00 0.00 82 1005.4
20260506050505 55 0 0.0 0.0 0.00 0.00 0.00 82 1005.5
20260506044505 54 0 0.0 0.0 0.00 0.00 0.00 82 1005.5
20260506044006 54 0 0.0 0.0 0.00 0.00 0.00 82 1005.5
20260506043005 54 0 0.0 0.0 0.00 0.00 0.00 82 1005.5
20260506041505 54 0 0.0 0.0 0.00 0.00 0.00 82 1005.5
20260506041005 54 0 0.0 0.0 0.00 0.00 0.00 82 1005.5
20260506040506 55 0 0.0 0.0 0.00 0.00 0.00 82 1005.5
20260506040006 55 0 0.0 0.0 0.00 0.00 0.00 82 1005.4
20260506034505 55 0 0.0 0.0 0.00 0.00 0.00 82 1005.5
20260506033504 55 0 0.0 0.0 0.00 0.00 0.00 82 1005.3
20260506031505 55 0 0.0 0.0 0.00 0.00 0.00 80 1005.4
20260506031005 56 0 0.0 0.0 0.00 0.00 0.00 79 1005.3
20260506030504 56 0 0.0 0.0 0.00 0.00 0.00 79 1005.2
20260506030005 56 0 0.0 0.0 0.00 0.00 0.00 78 1005.1
20260506024505 57 0 0.0 0.0 0.00 0.00 0.00 78 1005.3
20260506023504 57 0 0.0 0.0 0.00 0.00 0.00 77 1005.5
20260506023005 57 0 0.0 0.0 0.00 0.00 0.00 77 1005.3
20260506021504 57 0 0.0 0.0 0.00 0.00 0.00 77 1005.4
20260506021005 57 0 0.0 0.0 0.00 0.00 0.00 77 1005.3
20260506020005 58 0 0.0 0.0 0.00 0.00 0.00 76 1005.5
20260506014504 58 0 0.0 0.0 0.00 0.00 0.00 75 1005.5
20260506014004 59 0 0.0 0.0 0.00 0.00 0.00 75 1005.5
20260506013505 59 0 0.0 0.0 0.00 0.00 0.00 74 1005.4
20260506013005 59 0 0.0 0.0 0.00 0.00 0.00 74 1005.5
20260506011504 60 0 0.0 0.0 0.00 0.00 0.00 72 1005.3
20260506010504 60 0 0.0 0.0 0.00 0.00 0.00 71 1005.1
20260506010004 60 0 0.0 0.0 0.00 0.00 0.00 71 1005.0
20260506004504 61 0 0.0 0.0 0.00 0.00 0.00 70 1005.0
20260506004004 61 0 0.0 0.0 0.00 0.00 0.00 69 1005.0
20260506003505 62 0 0.0 0.0 0.00 0.00 0.00 70 1004.9
20260506003004 62 0 0.0 0.0 0.00 0.00 0.00 68 1004.7
20260506001504 63 0 0.0 0.0 0.00 0.00 0.00 67 1004.2
20260506001004 63 0 0.0 0.0 0.00 0.00 0.00 66 1004.1
20260506000504 64 0 0.0 0.0 0.00 0.00 0.00 65 1003.9
20260506000004 64 0 0.0 0.0 0.00 0.00 0.00 65 1003.7
20260505234504 64 0 0.0 0.0 0.00 0.00 0.00 65 1003.5
20260505234004 64 0 0.0 0.0 0.00 0.00 0.00 65 1003.4
20260505233004 64 0 0.0 0.0 0.00 0.00 0.00 65 1003.5
20260505231504 63 0 0.0 0.0 0.00 0.00 0.00 66 1003.6
20260505230504 63 0 0.0 0.0 0.00 0.00 0.00 66 1002.7
20260505230004 63 0 0.0 0.0 0.00 0.00 0.00 66 1002.2
20260505224504 63 0 0.0 0.0 0.00 0.00 0.00 66 1002.0
20260505223504 63 0 0.0 0.0 0.00 0.00 0.00 65 1001.9
20260505221509 64 0 0.0 0.0 0.00 0.00 0.00 64 1001.7
20260505221010 63 0 0.0 0.0 0.00 0.00 0.00 65 1001.6
20260505220510 63 0 0.0 0.0 0.00 0.00 0.00 66 1001.6
20260505220010 63 0 0.0 0.0 0.00 0.00 0.00 66 1001.5
20260505214509 62 0 0.0 0.0 0.00 0.00 0.00 67 1001.4
20260505214010 62 0 0.0 0.0 0.00 0.00 0.00 67 1001.4
20260505213009 62 0 0.0 0.0 0.00 0.00 0.00 68 1001.4
20260505211510 62 0 0.0 0.0 0.00 0.00 0.00 68 1001.5
20260505211010 62 0 0.0 0.0 0.00 0.00 0.00 68 1001.4
20260505210509 62 0 0.0 0.0 0.00 0.00 0.00 68 1001.5
20260505204510 65 0 0.0 0.0 0.00 0.00 0.00 64 1001.4
20260505204010 66 0 0.0 0.0 0.00 0.00 0.00 63 1001.4
20260505201510 66 0 0.0 0.0 0.00 0.00 0.00 63 1001.5
20260505201009 66 0 0.0 0.0 0.00 0.00 0.00 63 1001.5
20260505200009 67 0 0.0 0.0 0.00 0.00 0.00 62 1001.5
20260505194509 66 0 0.0 0.0 0.00 0.00 0.00 63 1001.8
20260505194009 66 0 0.0 0.0 0.00 0.00 0.00 63 1001.8
20260505193509 66 0 0.0 0.0 0.00 0.00 0.00 64 1001.9
20260505193010 66 0 0.0 0.0 0.00 0.00 0.00 64 1002.1
20260505191009 68 0 0.0 0.0 0.00 0.00 0.00 61 1002.4
20260505190509 68 0 0.0 0.0 0.00 0.00 0.00 61 1002.5
20260505184509 67 0 0.0 0.0 0.00 0.00 0.00 63 1002.9
20260505184009 67 0 0.0 0.0 0.00 0.00 0.00 63 1003.0
20260505183509 67 0 0.0 0.0 0.00 0.00 0.00 61 1002.8
20260505183009 66 0 0.0 0.0 0.00 0.00 0.00 62 1002.8
20260505181009 66 0 0.0 0.0 0.00 0.00 0.00 63 1003.0
20260505180509 66 0 0.0 0.0 0.00 0.00 0.00 63 1003.0
20260505180009 66 0 0.0 0.0 0.00 0.00 0.00 63 1003.0
20260505174009 67 0 0.0 0.0 0.00 0.00 0.00 61 1003.4
20260505173008 67 0 0.0 0.0 0.00 0.00 0.00 62 1003.4
20260505171509 65 0 0.0 0.0 0.00 0.00 0.00 64 1003.6
20260505171008 66 0 0.0 0.0 0.00 0.00 0.00 64 1003.6
20260505170508 68 0 0.0 0.0 0.00 0.00 0.00 61 1003.7
20260505170009 68 0 0.0 0.0 0.00 0.00 0.00 60 1003.9
20260505164508 68 0 0.0 0.0 0.00 0.00 0.00 60 1004.0
20260505163508 69 0 0.0 0.0 0.00 0.00 0.00 58 1004.1
20260505163009 69 0 0.0 0.0 0.00 0.00 0.00 59 1004.3
20260505161508 71 0 0.0 0.0 0.00 0.00 0.00 56 1004.4
20260505160508 73 0 0.0 0.0 0.00 0.00 0.00 55 1004.6
20260505153009 71 0 0.0 0.0 0.00 0.00 0.00 56 1005.1
20260505151508 70 0 0.0 0.0 0.00 0.00 0.00 57 1005.1
20260505151008 69 0 0.0 0.0 0.00 0.00 0.00 57 1005.1
20260505150508 67 0 0.0 0.0 0.00 0.00 0.00 61 1005.2
20260505124507 58 0 0.0 0.0 0.00 0.00 0.00 74 1005.6
20260505124007 58 0 0.0 0.0 0.00 0.00 0.00 73 1005.6
20260505123508 58 0 0.0 0.0 0.00 0.00 0.00 73 1005.5
20260505123007 57 0 0.0 0.0 0.00 0.00 0.00 73 1005.3
20260505121507 55 0 0.0 0.0 0.00 0.00 0.00 76 1005.4
20260505121007 55 0 0.0 0.0 0.00 0.00 0.00 77 1005.4
20260505120507 55 0 0.0 0.0 0.00 0.00 0.00 78 1005.5
20260505120007 55 0 0.0 0.0 0.00 0.00 0.00 78 1005.6
20260505114507 54 0 0.0 0.0 0.00 0.00 0.00 78 1005.6
20260505114007 53 0 0.0 0.0 0.00 0.00 0.00 79 1005.7
20260505113507 53 0 0.0 0.0 0.00 0.00 0.00 80 1005.7
20260505113007 53 0 0.0 0.0 0.00 0.00 0.00 80 1005.8
20260505111507 52 0 0.0 0.0 0.00 0.00 0.00 81 1005.7
20260505110507 51 0 0.0 0.0 0.00 0.00 0.00 83 1005.6
20260505101007 49 0 0.0 0.0 0.00 0.00 0.00 87 1005.7
20260505100506 49 0 0.0 0.0 0.00 0.00 0.00 87 1005.7
20260505100006 49 0 0.0 0.0 0.00 0.00 0.00 87 1005.6
20260505094507 49 0 0.0 0.0 0.00 0.00 0.00 86 1005.7
20260505094007 49 0 0.0 0.0 0.00 0.00 0.00 85 1005.7
20260505093507 49 0 0.0 0.0 0.00 0.00 0.00 85 1005.8
20260505093007 49 0 0.0 0.0 0.00 0.00 0.00 84 1005.7